FENGYUN 1C DEB, 31816

Orbit data source: Space-Track

FENGYUN 1C DEB, 31816 is space debris in SSO originally from a launch on Mon, 10 May 1999 UTC launched from the Taiyaun Space Center, China (TSC). Fengyun 1C debris stems from the Chinese weather satellite Fengyun-1C, which was intentionally destroyed by a Chinese anti-satellite missile in 2007. This event dramatically increased the amount of space debris, with thousands of trackable fragments posing hazards to satellites and human spaceflight. The Fengyun 1C debris cloud has become a focal point in discussions about space sustainability and the need for international regulations to prevent the creation of new debris.

Loading next visibility...
Identifier
31816, 1999-025CHE
Orbit
SSO
Country
Flag of CNCN / PRC
Related business
Manufacturer
Unknown
Mission
Spacecraft
Bus & Motor
Unknown
Mass
Unknown
Launch date (UTC)
1999-05-10 (27 years ago)
Launch vehicle
Unknown
Launch site
Taiyaun Space Center, China (TSC)
Object type
Payload
Rocket body
Debris
Shape & HBR
Unknown shape, 0.1 m
Radar Cross Section
Small (<0.1 m²)

Expand to show TLE details & history
Last TLE update: 19 hours ago

TLE from 19 hours ago
0 FENGYUN 1C DEB
1 31816U 99025CHE 26145.28619815  .00000756  00000-0  56110-3 0  9996
2 31816  98.9926 260.2348 0121248  67.7065 321.5558 13.94650853959734
Epoch: 2026-05-25T06:52Z
TLE epoch observation values (Epoch: 2026-05-25T06:52:07.520Z)
Latitude
28.05202°
Longitude
-90.48446°
Altitude
846.961 km
Speed
7.467 km/s
True Right ascension
17h 01m 41s
True Declination
27° 54' 41"
Sunlit
Object was in full shadow at epoch
Visualization orbit readout
Latitude
Unknown
Longitude
Unknown
Altitude
Unknown
Speed
Unknown
Apparent Right ascension
Unknown
Apparent Declination
Unknown
Sunlit
N/A
Visualization observer readout
Local Sidereal Time
11:18:37
Azimuth
Unknown
Elevation
Unknown
Doppler factor
Unknown
Orbital elements
Apogee altitude
997.945 km
Perigee altitude
821.221 km
Semi-major axis
7,287.72 km
Eccentricity
0.01212
Inclination
98.9926°
RAAN
260.2348°
Arg. of periapsis
67.7065°
True anomaly
320.6816°
Mean anomaly
321.5558°
Eccentric anomaly
321.11974°
Mean motion
3.48864 °/min
Orbital period
103.19 mins
BSTAR
0.0005611
Loading maneuver chart data...
Computing Atmospheric mass density...

Documentation

Showing up to 5 results
|